Location: Newark
(35.0033°N, 81.0878°W)
Time: 16:47:06
(UTC+00:00)

Oscar 11 - Visible Passes

Search period start: 15 October 2019 00:00
Search period end: 25 October 2019 00:00
Orbit: 614 x 624 km, 97.6° (Epoch: 15 October)

Date Brightness Start Highest point End Pass type
(mag) Time Alt. Az. Time Alt. Az. Time Alt. Az.
15 Oct 10.1 01:02:17 10° SW 01:04:43 15° W 01:07:10 10° WNW visible
15 Oct 7.0 23:41:14 10° SSE 23:45:30 63° ENE 23:49:49 10° N visible
16 Oct 7.1 23:58:16 10° S 00:02:35 80° WSW 00:06:57 10° NNW visible
18 Oct 8.0 00:15:32 10° S 00:19:42 48° W 00:23:55 10° NNW visible
19 Oct 9.0 00:33:03 10° SSW 00:36:52 30° W 00:40:42 10° NW visible
19 Oct 7.9 23:14:11 10° SE 23:17:57 30° ENE 23:21:44 10° N visible
20 Oct 9.7 00:50:58 10° SW 00:54:03 19° W 00:57:11 10° NW visible
20 Oct 7.3 23:30:49 10° SSE 23:34:57 47° ENE 23:39:09 10° N visible
21 Oct 10.3 01:09:38 10° WSW 01:11:18 12° W 01:12:59 10° WNW visible
21 Oct 6.9 23:47:42 10° SSE 23:52:01 78° ENE 23:56:22 10° N visible
23 Oct 7.5 00:04:49 10° S 00:09:06 65° W 00:13:26 10° NNW visible
24 Oct 8.4 00:22:11 10° SSW 00:26:15 39° W 00:30:20 10° NNW visible
24 Oct 8.2 23:03:59 10° ESE 23:07:26 23° ENE 23:10:53 10° NNE visible
